TimeCST,TemperatureF,Dew PointF,Humidity,Sea Level PressureIn,VisibilityMPH,Wind Direction,Wind SpeedMPH,Gust SpeedMPH,PrecipitationIn,Events,Conditions,WindDirDegrees,DateUTC
12:55 AM,57.2,44.6,63,30.25,10.0,Calm,Calm,-,N/A,,Partly Cloudy,0,2012-11-07 06:55:00
1:54 AM,53.6,44.6,72,30.25,10.0,Calm,Calm,-,N/A,,Partly Cloudy,0,2012-11-07 07:54:00
2:53 AM,51.8,44.6,76,29.98,10.0,Calm,Calm,-,N/A,,Partly Cloudy,0,2012-11-07 08:53:00
3:53 AM,50.0,44.6,82,30.24,10.0,Calm,Calm,-,N/A,,Partly Cloudy,0,2012-11-07 09:53:00
5:10 AM,48.2,42.8,82,30.24,10.0,Calm,Calm,-,N/A,,Clear,0,2012-11-07 11:10:00
6:13 AM,46.4,42.8,87,30.02,8.0,Calm,Calm,-,N/A,,Clear,0,2012-11-07 12:13:00
6:53 AM,46.4,42.8,87,30.22,10.0,Calm,Calm,-,N/A,,Clear,0,2012-11-07 12:53:00
7:43 AM,53.6,44.6,72,30.30,10.0,Calm,Calm,-,N/A,,Partly Cloudy,0,2012-11-07 13:43:00
8:52 AM,59.0,42.8,55,30.11,10.0,NE,9.2,-,N/A,,Partly Cloudy,40,2012-11-07 14:52:00
9:55 AM,64.4,32.0,30,30.32,12.0,East,8.1,-,N/A,,Scattered Clouds,80,2012-11-07 15:55:00
10:51 AM,68.0,39.2,35,30.30,15.0,SE,4.6,-,N/A,,Scattered Clouds,140,2012-11-07 16:51:00
11:50 AM,71.6,30.2,22,30.01,15.0,East,6.9,-,N/A,,Scattered Clouds,100,2012-11-07 17:50:00
12:51 PM,75.2,32.0,21,30.22,15.0,SE,11.5,-,N/A,,Clear,140,2012-11-07 18:51:00
1:16 PM,75.2,28.4,18,30.20,15.0,ENE,5.8,-,N/A,,Clear,60,2012-11-07 19:16:00
1:50 PM,77.0,30.2,18,30.18,15.0,East,6.9,-,N/A,,Clear,90,2012-11-07 19:50:00
2:55 PM,77.0,33.8,21,30.15,15.0,ENE,6.9,-,N/A,,Clear,60,2012-11-07 20:55:00
3:48 PM,78.8,33.8,20,30.14,15.0,Calm,Calm,-,N/A,,Clear,0,2012-11-07 21:48:00
4:47 PM,77.0,33.8,21,30.13,15.0,Calm,Calm,-,N/A,,Scattered Clouds,0,2012-11-07 22:47:00
5:43 PM,75.2,35.6,24,29.92,10.0,SE,3.5,-,N/A,,Scattered Clouds,140,2012-11-07 23:43:00
6:47 PM,68.0,37.4,33,30.15,10.0,Calm,Calm,-,N/A,,Scattered Clouds,0,2012-11-08 00:47:00
7:48 PM,60.8,42.8,52,30.18,10.0,Calm,Calm,-,N/A,,Partly Cloudy,0,2012-11-08 01:48:00
8:46 PM,57.2,42.8,59,30.00,10.0,Calm,Calm,-,N/A,,Clear,0,2012-11-08 02:46:00
9:47 PM,55.4,42.8,63,30.22,10.0,Calm,Calm,-,N/A,,Clear,0,2012-11-08 03:47:00
10:45 PM,51.8,42.8,71,30.22,10.0,Calm,Calm,-,N/A,,Clear,0,2012-11-08 04:45:00
11:48 PM,53.6,44.6,72,29.99,10.0,Calm,Calm,-,N/A,,Clear,0,2012-11-08 05:48:00